Find OneWeb SL0300

NORAD ID: 49089 Int'l Des: 2021-075 Owner: ONEWEBN Country: UK Constellation: oneweb operational
LEOCIRCULARPOLARONEWEB_TYPE

リアルタイム位置

3D地球を読み込み中...

OneWeb SL0300について

説明を読み込み中...

次回通過

Passes for default location (London). Set your location on the main map for personalized predictions.

高度履歴

Loading altitude history...

軌道要素

1 49089U 21075Q 26123.88675931 .00000151 00000-0 38407-3 0 9998
2 49089 87.8989 359.4610 0002106 87.7392 272.3978 13.12440224229390
Epoch: May 3, 2026 • Age: 12 hours

現在のステータス

高度 1233.0 km
速度 7.24 km/s
衛星直下点 -46.51°S, 178.14°E
打ち上げ日 Aug 21, 2021
運用期間 4.7 years
タイプ internet

技術仕様

分類 Payload
質量 148.00 kg
乾燥質量 140.00 kg
総質量 148.00 kg
長さ 1.30 m
直径 1.00 m
スパン 5.00 m
形状 Trapezoid+2 pan
製造者 ONEWUS
バスタイプ ARROW
フェーズステータス In Orbit
所有者/国 ONEWEBN/UK

Most Searched